Wind_Speed
3 4 2 4 6 5 5 5 7 8 8 7 8 8 8 7 5 1 2 2 5 4 4 7 7 4 3 4 5 7 9 10 10 11 6 5 6 7 4 6 7 6 5 5 4 3 1 1 2
4 3 1 1 4 6 1 1 3 5 5 4 6 6 6 6 3 1 0 1 2 3 5 4 6 3 6 3 9 10 10 9 8 7 5 3 3 7 5 6 7 6 5 4 2 3 2 1 2
2 2 2 3 4 3 2 2 5 3 2 1 3 3 4 4 4 2 0 2 2 4 6 3 5 2 1 4 12 10 8 8 8 4 4 4 2 2 5 7 6 5 4 3 2 3 4 3 2
2 1 3 4 4 3 5 4 2 4 5 3 2 2 4 4 4 2 2 1 1 3 4 4 4 4 4 9 11 9 5 4 5 4 3 4 2 6 3 6 4 4 4 3 3 6 5 2 3
3 2 2 3 3 1 1 5 5 3 1 2 3 3 6 7 5 3 3 2 2 3 3 3 5 5 5 5 9 7 3 2 3 4 4 9 5 6 8 8 4 4 2 4 5 7 4 3 3
4 4 5 6 7 9 8 7 6 4 3 3 5 8 8 8 7 4 4 4 3 3 4 4 6 8 6 6 7 6 5 1 2 5 6 11 5 6 7 5 3 4 3 4 7 8 4 6 5
6 6 6 6 8 11 13 10 9 8 7 7 5 6 7 9 8 6 5 5 5 4 4 4 6 9 10 8 6 3 7 5 1 2 6 8 10 3 7 3 3 4 4 5 7 6 7 6 6
1 2 3 2 3 6 7 8 9 10 11 11 10 8 7 8 8 7 6 7 6 5 5 5 6 8 8 8 6 4 5 4 3 3 6 9 7 7 5 4 2 3 4 6 5 7 8 6 8
4 3 3 3 4 6 6 7 6 6 8 11 10 11 8 8 8 8 8 8 7 6 6 6 6 7 9 9 7 7 6 3 6 2 4 5 5 6 5 4 2 5 5 5 4 7 9 8 9
4 3 2 2 5 8 7 7 6 6 6 8 11 13 11 10 10 9 9 9 9 8 7 8 7 8 9 9 8 9 8 5 4 3 3 3 4 5 5 4 3 4 3 5 3 3 6 7 7
3 2 2 4 6 7 7 6 7 6 5 6 6 9 11 11 12 9 9 9 9 9 8 8 8 8 9 10 10 11 11 9 7 5 4 2 6 4 4 2 5 2 3 3 3 3 10 8 3
3 1 4 7 8 6 8 8 7 4 4 4 4 5 6 7 9 9 9 8 9 9 9 9 8 8 8 10 11 11 11 11 9 6 4 4 8 6 3 1 4 3 4 4 4 7 8 9 6
3 2 4 6 6 8 9 8 8 6 5 5 6 7 6 8 9 9 9 9 8 9 10 11 12 9 9 9 12 12 12 12 10 6 5 6 8 6 3 3 5 1 1 5 7 7 6 7 7
4 2 5 5 8 7 8 12 12 11 11 9 7 8 8 8 11 13 12 9 7 9 9 11 12 11 10 10 15 12 13 13 11 7 7 9 8 7 4 3 4 2 4 6 6 9 8 8 8
5 3 5 9 7 9 11 11 13 15 16 15 14 11 10 9 12 13 14 12 7 8 8 9 11 11 9 11 12 15 15 14 11 8 6 8 11 6 7 3 5 5 7 9 7 8 9 9 9
7 6 9 11 12 12 11 13 12 14 17 19 18 17 14 11 10 14 11 11 8 8 8 8 10 11 8 10 5 15 15 14 11 8 6 11 12 10 5 4 9 9 8 9 9 8 7 8 9
6 6 9 11 11 12 12 11 13 14 15 17 18 18 16 12 12 14 13 13 11 10 10 10 10 11 10 10 8 12 14 13 13 9 8 10 12 9 4 6 12 11 9 7 9 9 8 9 8
5 6 8 8 10 11 11 11 12 15 12 13 15 17 18 18 16 12 15 14 14 14 11 11 11 11 12 12 10 12 16 21 14 12 10 11 12 12 8 9 9 11 11 6 8 9 9 8 8
7 7 8 9 8 10 11 12 17 14 14 12 14 16 17 18 18 17 13 12 16 17 13 12 13 13 12 13 13 13 14 15 16 15 13 12 13 12 10 14 14 10 9 9 9 9 8 7 8
9 10 9 10 9 10 12 14 17 16 14 15 15 16 17 20 18 17 18 12 13 18 13 12 12 12 12 13 13 14 16 17 17 16 15 13 12 9 13 17 10 11 12 9 11 9 9 8 9
11 13 11 10 9 12 13 10 17 17 15 17 16 18 18 21 18 13 11 10 11 16 13 11 8 9 10 11 12 13 16 17 18 20 18 14 8 7 12 14 9 9 14 13 11 12 9 9 11
12 16 12 12 10 9 13 9 13 12 14 16 11 15 14 17 13 7 9 11 12 14 14 10 7 8 10 11 12 13 17 18 20 23 20 13 10 9 8 10 16 13 12 13 10 13 11 9 9
13 15 15 14 14 13 12 13 9 13 13 16 13 12 12 11 6 5 8 10 14 15 12 10 9 8 10 10 10 9 17 19 20 19 20 14 10 9 14 12 13 15 16 13 12 13 10 9 7
16 15 18 19 16 13 16 14 4 10 8 9 9 10 12 12 10 10 7 6 6 11 10 11 9 9 9 10 9 9 14 18 19 17 18 16 14 13 13 14 14 15 13 13 11 13 10 9 6
18 17 13 13 12 9 20 14 11 14 15 11 11 11 12 15 16 9 8 9 7 8 6 8 8 5 10 9 10 8 13 17 17 17 18 18 18 15 15 15 16 13 11 11 13 11 9 9 7
18 14 15 13 11 13 19 12 8 13 22 14 15 18 16 19 18 15 10 9 10 10 9 10 8 5 9 9 12 12 12 16 16 16 17 18 18 17 17 16 15 13 13 12 14 13 11 9 8
13 15 14 16 17 16 10 13 11 9 19 20 14 18 21 22 22 17 11 10 10 10 9 9 10 10 8 10 12 12 14 13 14 16 16 17 16 18 18 16 17 15 14 13 13 11 11 10 10
21 20 16 15 15 17 11 15 10 15 18 22 19 19 22 18 17 15 13 10 7 9 10 9 10 10 9 9 11 13 15 15 15 14 13 16 16 17 18 20 21 20 17 15 13 11 10 9 10
23 25 26 23 21 19 18 14 17 16 13 17 17 20 14 11 15 14 14 12 9 7 11 12 10 11 15 10 11 14 16 17 15 13 13 14 15 18 18 18 21 22 18 18 14 14 14 13 13
29 32 31 25 20 23 23 22 23 14 14 17 23 16 18 12 13 14 16 15 12 8 9 11 12 13 13 15 13 15 17 17 17 15 15 16 15 16 16 17 17 19 19 19 18 19 19 18 17
Wind_Direction
151 147 131 101 85 93 105 97 107 97 79 85 76 63 53 52 99 82 284 132 114 125 110 120 141 164 264 200 136 94 87 83 87 83 86 110 73 93 97 100 104 92 83 80 81 87 95 203 194
172 179 233 63 56 68 64 162 53 121 118 80 73 57 53 48 36 143 202 36 94 156 150 115 104 61 108 300 136 100 82 75 83 92 86 15 176 115 116 104 92 80 82 82 53 49 60 118 175
184 231 316 358 34 358 329 11 286 210 231 199 81 35 33 28 7 317 28 27 52 147 179 157 127 159 67 145 132 92 77 78 96 91 79 29 75 29 122 107 98 78 87 79 38 26 48 83 166
238 290 327 348 2 351 20 42 317 298 274 223 175 295 332 330 331 330 351 352 351 183 204 225 182 168 142 147 114 101 100 84 83 56 11 323 317 224 201 109 86 76 88 95 52 29 52 119 128
226 236 275 318 305 303 307 345 350 44 106 231 244 284 296 285 301 338 299 276 279 258 243 215 198 202 182 146 140 132 111 76 43 24 353 324 40 270 211 136 109 99 96 76 43 41 34 62 46
241 262 280 285 289 291 296 306 300 306 308 286 289 284 281 279 292 301 286 263 278 280 268 207 205 203 209 185 165 185 177 163 3 19 357 350 115 85 121 109 86 103 93 54 45 45 38 48 41
246 256 267 287 287 296 295 296 290 288 284 291 286 294 281 268 277 286 291 267 268 281 275 230 223 205 206 198 189 191 179 163 340 17 348 41 153 113 105 107 89 98 75 56 59 75 70 60 54
275 302 286 277 258 297 295 293 284 281 280 277 280 281 268 258 270 277 281 260 257 261 262 248 211 223 212 220 195 183 184 186 232 85 6 73 123 116 108 74 64 77 58 53 80 86 79 73 59
77 84 86 153 286 295 303 299 301 286 299 264 271 273 262 254 269 275 280 266 256 251 259 254 226 212 209 213 194 191 197 194 206 115 62 70 127 137 111 104 104 73 44 38 76 85 74 72 56
83 117 82 301 308 295 296 292 277 285 285 270 264 268 260 256 276 277 284 281 260 248 254 254 242 216 208 199 209 211 204 196 191 178 152 132 156 145 116 89 93 87 38 42 76 90 66 69 50
95 156 264 308 293 296 295 281 266 269 279 286 276 265 250 265 276 271 280 275 260 253 260 262 250 230 214 201 208 211 205 207 199 187 190 176 167 162 131 126 85 94 39 40 59 85 65 74 48
140 227 275 284 289 300 297 287 276 255 252 285 308 284 275 279 274 267 283 286 270 255 250 257 263 236 224 207 216 219 214 205 207 197 193 184 173 166 142 133 151 107 44 45 90 93 88 82 96
64 350 308 291 300 312 308 297 283 273 273 277 282 277 278 280 273 265 286 291 265 246 252 251 257 247 235 223 221 219 216 209 213 197 190 186 183 167 131 149 140 157 159 83 113 118 112 101 93
62 345 322 329 311 325 325 309 295 290 283 284 281 276 273 267 270 262 269 280 268 255 251 249 256 249 233 232 223 216 220 214 214 195 202 192 182 205 185 185 175 350 188 142 143 114 110 114 110
44 11 332 342 335 313 313 311 304 298 288 287 288 287 289 284 266 258 258 265 261 243 253 253 253 249 228 249 230 213 216 220 217 200 209 206 192 194 179 190 156 150 150 160 156 126 126 118 115
34 4 347 346 326 311 307 299 301 299 288 283 285 289 292 292 282 253 251 261 277 272 255 256 254 252 234 245 241 201 207 218 216 214 213 218 194 197 185 174 187 158 153 156 150 144 143 133 125
10 347 353 358 356 339 325 311 310 299 287 282 288 292 296 299 297 269 249 255 266 268 260 254 251 248 234 225 233 179 203 210 218 217 223 210 191 177 205 158 164 171 158 173 157 155 159 151 139
328 336 343 0 2 351 350 320 303 297 291 292 293 297 296 302 296 294 276 267 275 264 249 243 240 240 231 219 214 207 218 212 209 214 224 206 195 189 189 178 168 155 178 183 176 172 173 163 147
316 312 318 333 1 357 349 316 310 310 289 286 285 296 310 313 303 304 295 280 280 277 261 243 236 235 227 227 213 219 224 222 202 204 213 225 203 198 186 179 180 191 170 196 189 193 206 189 157
300 293 295 310 334 354 343 320 324 323 303 289 291 293 306 314 318 299 306 294 266 262 272 254 232 230 223 226 222 220 221 217 208 203 212 201 198 205 209 196 204 205 181 173 187 188 195 191 179
282 281 287 298 315 332 345 328 309 314 299 299 325 311 298 300 307 304 306 304 272 266 271 253 221 231 232 230 231 226 223 211 197 197 202 194 193 177 164 187 189 155 170 177 187 192 199 193 180
270 280 288 293 303 314 325 345 309 295 287 305 311 303 298 297 301 297 302 295 292 275 267 262 237 237 246 244 250 236 223 213 196 193 202 205 196 200 204 195 181 175 183 184 186 180 184 170 183
267 286 286 292 303 313 331 329 316 278 292 299 304 298 297 310 307 298 297 292 290 263 255 255 241 249 245 242 250 241 213 211 205 206 206 211 211 215 184 194 197 189 179 174 178 186 178 183 192
278 277 286 299 304 311 288 315 315 268 273 249 283 293 303 309 309 291 285 292 277 263 256 251 230 244 238 243 243 242 206 199 202 202 208 221 219 201 189 188 179 185 183 189 190 188 192 201 213
276 283 292 290 296 294 290 311 312 252 256 240 266 285 300 312 316 301 287 262 243 252 262 269 279 250 243 236 244 233 201 196 201 207 218 219 214 209 202 191 188 187 188 188 188 190 196 201 203
289 265 262 275 281 278 291 302 290 265 246 255 264 277 299 308 314 323 301 264 265 260 244 246 258 249 251 229 236 229 203 194 202 213 222 221 219 211 205 210 207 204 197 192 195 199 204 204 203
275 287 262 274 286 291 288 282 321 299 253 251 267 267 282 295 298 306 326 311 277 257 263 258 248 238 232 234 230 231 216 203 205 216 209 201 204 212 217 226 218 210 212 211 208 205 206 207 202
273 266 277 294 274 274 279 280 273 273 268 254 263 266 270 281 292 305 302 310 304 272 249 252 248 241 206 230 235 229 231 224 223 224 221 215 212 213 220 226 226 219 217 218 220 220 220 219 221
268 272 279 270 253 267 275 281 264 263 270 245 249 251 247 273 291 298 305 306 295 282 243 245 242 234 215 217 238 230 228 228 225 227 231 229 222 225 230 231 228 230 231 226 222 227 233 234 234
252 258 260 264 271 282 269 261 268 253 258 250 252 242 271 252 271 291 296 295 308 298 263 248 237 232 228 223 223 237 236 232 232 229 233 235 230 227 236 230 229 229 234 238 237 237 240 242 240
Height
5913 5914 5914 5915 5918 5916 5916 5917 5915 5913 5912 5911 5910 5909 5908 5907 5906 5908 5904 5904 5903 5903 5904 5903 5903 5903 5903 5904 5905 5905 5904 5904 5904 5905 5905 5904 5905 5905 5908 5907 5906 5906 5906 5905 5904 5905 5905 5906 5905
5914 5914 5915 5915 5916 5915 5916 5916 5915 5915 5914 5913 5911 5909 5908 5908 5906 5905 5904 5903 5903 5903 5904 5904 5903 5903 5903 5905 5905 5906 5906 5905 5905 5905 5905 5904 5905 5906 5908 5907 5907 5906 5905 5904 5904 5906 5906 5906 5905
5913 5914 5915 5915 5915 5915 5915 5915 5914 5913 5913 5912 5911 5910 5909 5908 5907 5905 5903 5902 5902 5903 5904 5904 5904 5904 5905 5906 5906 5907 5907 5907 5907 5907 5907 5907 5907 5907 5906 5907 5907 5906 5906 5905 5905 5905 5906 5906 5905
5914 5914 5915 5915 5915 5916 5915 5914 5914 5912 5912 5911 5910 5910 5909 5908 5907 5905 5903 5903 5903 5903 5904 5904 5904 5905 5906 5906 5907 5907 5908 5909 5908 5908 5907 5907 5906 5906 5907 5907 5907 5906 5905 5904 5905 5905 5906 5906 5905
5913 5914 5914 5914 5914 5914 5914 5914 5914 5913 5912 5911 5910 5910 5909 5908 5907 5904 5903 5902 5903 5903 5904 5904 5905 5905 5907 5907 5908 5909 5908 5909 5908 5909 5907 5907 5905 5904 5906 5907 5906 5906 5906 5904 5906 5905 5906 5905 5904
5913 5913 5914 5914 5913 5913 5912 5913 5913 5912 5912 5911 5911 5910 5909 5907 5906 5904 5903 5902 5902 5902 5903 5904 5905 5905 5907 5909 5908 5909 5909 5908 5908 5909 5907 5906 5905 5906 5907 5907 5907 5906 5906 5906 5905 5906 5906 5905 5904
5911 5912 5913 5913 5913 5912 5911 5912 5911 5911 5910 5910 5910 5909 5908 5906 5905 5904 5903 5902 5902 5903 5903 5904 5905 5904 5906 5908 5909 5910 5909 5909 5909 5909 5908 5905 5904 5906 5907 5908 5907 5906 5906 5907 5906 5906 5905 5905 5904
5910 5912 5912 5913 5913 5912 5911 5910 5909 5908 5908 5908 5908 5908 5907 5906 5904 5903 5902 5901 5902 5902 5902 5904 5904 5904 5905 5907 5909 5909 5909 5909 5909 5908 5908 5907 5907 5906 5907 5907 5907 5907 5908 5907 5906 5905 5905 5905 5904
5910 5912 5913 5913 5913 5911 5911 5909 5908 5907 5907 5906 5906 5906 5906 5905 5904 5902 5901 5901 5901 5901 5901 5903 5903 5905 5905 5906 5908 5909 5909 5908 5909 5909 5908 5908 5908 5907 5907 5908 5908 5908 5908 5907 5907 5907 5906 5906 5905
5911 5911 5913 5913 5912 5911 5910 5909 5907 5906 5905 5904 5904 5904 5903 5903 5903 5901 5900 5900 5900 5901 5901 5902 5903 5904 5905 5906 5907 5908 5908 5908 5908 5908 5909 5909 5909 5908 5908 5908 5908 5908 5907 5907 5908 5909 5907 5907 5907
5911 5912 5912 5912 5912 5911 5910 5908 5906 5905 5903 5902 5902 5902 5902 5902 5901 5900 5899 5899 5899 5899 5900 5901 5902 5904 5904 5905 5906 5907 5908 5908 5907 5908 5909 5909 5908 5908 5909 5908 5908 5908 5908 5908 5908 5909 5909 5908 5909
5911 5911 5912 5912 5912 5911 5910 5907 5906 5905 5904 5903 5902 5901 5901 5900 5899 5899 5899 5898 5898 5899 5899 5900 5902 5903 5904 5904 5905 5906 5907 5907 5907 5907 5908 5908 5907 5907 5909 5908 5908 5909 5909 5909 5911 5910 5910 5910 5911
5910 5911 5911 5912 5912 5911 5910 5908 5906 5905 5903 5902 5901 5901 5900 5899 5899 5898 5898 5898 5898 5898 5897 5899 5901 5902 5903 5903 5904 5904 5905 5906 5906 5906 5907 5907 5907 5907 5909 5909 5909 5909 5910 5911 5911 5910 5912 5912 5912
5911 5911 5912 5912 5911 5910 5910 5908 5906 5904 5902 5900 5899 5898 5898 5898 5897 5897 5897 5897 5897 5897 5897 5898 5899 5901 5902 5901 5901 5902 5903 5904 5905 5906 5906 5907 5907 5908 5909 5909 5909 5909 5909 5912 5912 5913 5914 5914 5913
5912 5912 5912 5911 5911 5910 5909 5908 5906 5905 5902 5900 5898 5897 5896 5896 5895 5895 5895 5895 5896 5896 5897 5898 5898 5899 5900 5898 5897 5899 5901 5903 5905 5906 5905 5907 5908 5908 5910 5909 5909 5910 5911 5913 5914 5914 5915 5915 5915
5913 5913 5912 5911 5910 5909 5909 5907 5905 5904 5901 5899 5897 5895 5894 5893 5893 5892 5893 5893 5893 5893 5895 5896 5897 5898 5898 5897 5896 5896 5899 5902 5904 5904 5905 5907 5907 5909 5908 5909 5910 5911 5912 5913 5914 5916 5917 5917 5917
5913 5913 5911 5910 5909 5908 5906 5906 5904 5902 5900 5898 5896 5894 5893 5892 5891 5891 5892 5891 5892 5892 5893 5894 5895 5896 5897 5896 5894 5895 5898 5900 5903 5904 5904 5905 5907 5908 5908 5908 5909 5912 5914 5915 5916 5917 5918 5919 5918
5913 5912 5911 5910 5909 5906 5905 5903 5902 5901 5899 5898 5896 5894 5892 5891 5890 5890 5890 5891 5891 5891 5892 5894 5894 5894 5895 5896 5895 5896 5896 5895 5901 5902 5904 5905 5907 5907 5908 5909 5910 5913 5914 5916 5917 5918 5919 5919 5919
5910 5910 5910 5909 5908 5906 5904 5902 5900 5899 5898 5897 5895 5894 5892 5891 5890 5889 5890 5890 5889 5888 5889 5891 5892 5892 5893 5894 5895 5895 5894 5894 5898 5901 5902 5904 5905 5907 5907 5909 5911 5912 5914 5916 5918 5919 5920 5920 5920
5907 5907 5908 5907 5905 5905 5903 5900 5899 5898 5896 5896 5895 5894 5892 5889 5889 5887 5887 5886 5886 5884 5886 5888 5888 5890 5891 5892 5893 5893 5893 5894 5897 5900 5901 5903 5904 5906 5906 5908 5910 5910 5912 5914 5917 5918 5920 5921 5921
5904 5904 5905 5905 5903 5902 5902 5900 5898 5897 5895 5894 5894 5892 5889 5887 5885 5885 5885 5884 5884 5883 5885 5886 5886 5888 5889 5890 5891 5891 5891 5893 5895 5898 5899 5902 5903 5904 5906 5907 5908 5910 5912 5914 5916 5918 5920 5921 5922
5902 5900 5901 5901 5901 5901 5900 5901 5898 5896 5895 5894 5893 5890 5888 5884 5883 5883 5883 5883 5883 5883 5884 5885 5885 5885 5887 5888 5889 5888 5889 5891 5894 5895 5898 5900 5902 5904 5906 5906 5908 5910 5911 5913 5915 5918 5919 5921 5921
5898 5897 5898 5897 5898 5898 5899 5899 5902 5896 5896 5893 5891 5888 5886 5884 5882 5882 5881 5881 5880 5881 5882 5882 5883 5883 5884 5885 5886 5886 5888 5890 5893 5895 5897 5899 5901 5902 5904 5906 5908 5910 5911 5913 5915 5917 5918 5920 5921
5895 5895 5895 5895 5896 5897 5898 5897 5899 5897 5894 5891 5889 5887 5885 5883 5882 5881 5880 5880 5879 5879 5880 5880 5881 5881 5882 5883 5883 5884 5886 5888 5891 5894 5896 5897 5899 5900 5902 5905 5907 5908 5911 5913 5914 5915 5917 5918 5920
5891 5892 5895 5899 5899 5900 5895 5895 5894 5891 5890 5890 5888 5886 5884 5883 5881 5879 5879 5879 5878 5877 5878 5878 5879 5879 5880 5881 5882 5883 5884 5887 5890 5893 5894 5895 5897 5898 5901 5904 5906 5908 5910 5912 5912 5914 5916 5918 5918
5888 5891 5893 5895 5897 5898 5892 5892 5895 5888 5887 5888 5887 5885 5884 5882 5880 5878 5878 5877 5877 5876 5875 5876 5876 5877 5879 5879 5881 5883 5884 5886 5889 5891 5892 5893 5895 5897 5900 5902 5904 5906 5908 5911 5911 5912 5914 5916 5917
5886 5884 5888 5887 5890 5888 5892 5890 5889 5886 5884 5885 5884 5883 5882 5881 5880 5879 5877 5876 5876 5875 5874 5873 5874 5875 5876 5878 5879 5881 5883 5885 5887 5889 5890 5892 5894 5896 5899 5901 5903 5905 5907 5910 5911 5911 5913 5914 5915
5879 5881 5883 5883 5885 5886 5889 5887 5887 5885 5881 5882 5881 5880 5880 5879 5878 5878 5876 5875 5873 5873 5872 5872 5872 5872 5873 5876 5878 5880 5882 5884 5886 5887 5889 5891 5893 5894 5896 5899 5901 5902 5905 5907 5910 5911 5913 5914 5915
5874 5875 5875 5878 5880 5881 5882 5886 5882 5880 5879 5879 5878 5876 5876 5876 5876 5875 5874 5874 5872 5870 5870 5870 5870 5869 5870 5873 5875 5877 5879 5881 5883 5885 5888 5890 5891 5892 5894 5896 5898 5901 5903 5905 5906 5908 5910 5912 5913
5868 5868 5870 5871 5874 5872 5872 5875 5876 5875 5875 5873 5872 5873 5871 5872 5873 5872 5871 5870 5870 5869 5868 5868 5868 5867 5868 5869 5872 5874 5876 5878 5880 5882 5885 5888 5889 5889 5891 5893 5895 5897 5900 5902 5903 5905 5907 5909 5911